map of STC home
STC - Airport
Location
City:  St. Cloud, Minnesota, United States
Name:St. Cloud Regional
ICAO:KSTC
IATA:STC
FAA LID:STC

Details
Type:Airport (Part 139 Class I)
Use:Public/Civil
Latitude:4532'48"N (45.546556)
Longitude:9403'36"W (-94.059888)
Datum:WGS 1984
Elevation:1030 ft (314 m)
Variation:0.79E (WMM2015 magnetic declination)
-0.07 annual change
Runways:2
Longest:7000 × 150 ft (2134 × 45.5 m), paved

Time
Time Zone:UTC-6 (DST-5)
Local Time:

Weather
METAR:KSTC 250913Z 29018G23KT 7SM OVC010 M07/M08 A2949 RMK AO2 T10671083
TAF:KSTC 250520Z 2506/2606 29009KT 3SM -SN BR OVC018
FM250800 28013G23KT P6SM OVC020
FM251400 26014G22KT P6SM SCT020
FM260200 24009KT P6SM SKC

Related Locations
Nearby:
Farthest:MQZ: 10705 mi / 17228 km
Margaret River [Margaret River Airport], WA, AU

Find:

   beyond  
but within

Other Information
Maps:
NOTAMs:
Links:
Sources:

  
flag of United States
flag of Minnesota
  

Airport Diagram

Airport diagram for STC

Airport diagram PDF

Sectional Chart

Flight Planning
at skyvector.com

Satellite Image

Google Maps Satellite view

 

Copyright © 2004-2018 Karl L. Swartz. All rights reserved.
The Great Circle Mapper name and logo are trademarks of the Great Circle Mapper.
All other trademarks mentioned herein belong to their respective owners.
Please see credits for attibutions and further copyright information.

  Follow gcmap on Facebook Follow gcmap on Twitter Follow gcmap on Google+ GCmap on LinkedIn

hCard Microformat

Geo Microformat